Location: M�nchen
(48.1404°N, 11.6043°E)
Time: 00:24:55
(UTC+02:00)

Envisat - Visible Passes

Search period start: 24 May 2018 00:00
Search period end: 03 June 2018 00:00
Orbit: 764 x 766 km, 98.2° (Epoch: 23 May)

Date Brightness Start Highest point End Pass type
(mag) Time Alt. Az. Time Alt. Az. Time Alt. Az.
25 May 5.6 21:47:47 10° SW 21:51:12 18° W 21:54:39 10° NW visible
27 May 6.0 22:16:21 10° W 22:17:09 10° W 22:17:58 10° WNW visible
28 May 5.4 21:36:01 10° SW 21:39:55 22° W 21:43:52 10° NW visible
30 May 5.7 22:03:26 10° WSW 22:05:50 13° W 22:08:14 10° WNW visible
02 Jun 5.6 21:51:21 10° SW 21:54:31 17° W 21:57:42 10° NW visible
